Location: Recife
(8.0585°S, 34.8848°W)
Time: 13:34:12
(UTC-03:00)

Tiros 1 despin weight - Pass Details

Date: 16 April 2026
Orbit: 555 x 591 km, 48.2° (Epoch: 14 May)

Event Time Altitude Azimuth Distance (km) Brightness Sun altitude
Rises 01:11:56 0° 319° (NW) 2,804 - -62.2°
Reaches altitude 10° 01:14:13 10° 318° (NW) 1,906 - -61.6°
Maximum altitude 01:18:35 82° 231° (SW) 596 - -60.5°
Drops below altitude 10° 01:22:58 10° 143° (SE) 1,905 - -59.4°
Sets 01:25:14 0° 142° (SE) 2,803 - -58.9°
